Regional Weather Roundup
Issued by NWS Upton, NY

Current Version | Previous Version | Graphics & Text | Print | Product List | Glossary Off
Versions: 1 2 3 4 5 6 7 8 9 10 11 12 13 14 15 16 17 18 19 20 21 22 23 24 25 26 27 28 29 30 31 32 33 34 35 36 37 38 39 40 41 42 43 44 45 46 47 48 49 50

000
ASUS41 KOKX 211405
RWROKX

REGIONAL WEATHER ROUNDUP
NATIONAL WEATHER SERVICE NEW YORK NY
900 AM EST FRI NOV 21 2014

NOTE: "FAIR" INDICATES FEW OR NO CLOUDS BELOW 12,000 FEET WITH NO
SIGNIFICANT WEATHER AND/OR OBSTRUCTIONS TO VISIBILITY.

NYZ071-072-176-178-NJZ106-104-211500-
NEW YORK CITY METRO AREA


CITY           SKY/WX    TMP DP  RH WIND       PRES   REMARKS
CENTRAL PARK   SUNNY     29   9  43 VRB6G20   30.28R WCI  23
LAGUARDIA APRT MOSUNNY   30  12  47 W20G28    30.26R WCI  17
KENNEDY INTL   MOSUNNY   31   8  38 NW18G31   30.27R WCI  19
NEWARK/LIBERTY MOSUNNY   29  10  45 W13G22    30.27R WCI  19
BRNX BOT. GARD   N/A    N/A N/A N/A NW14      30.25R
TETERBORO      SUNNY     30  10  43 NW15G23   30.26R WCI  19
$$

NYZ177-179-078>081-211500-
LONG ISLAND NEW YORK

CITY           SKY/WX    TMP DP  RH WIND       PRES   REMARKS
FARMINGDALE    SUNNY     31   9  39 NW15G31   30.24R WCI  20
ISLIP          MOSUNNY   31  10  41 NW18G29   30.20R WCI  19
SHIRLEY        MOSUNNY   31  10  41 NW16G25   30.22R WCI  20
WESTHAMPTON    MOSUNNY   32  10  40 W22G31    30.20R WCI  19
MONTAUK POINT    N/A     32  11  41 NW16G30   30.18R WCI  21
$$

NYZ052-065-067-211500-
HUDSON VALLEY

CITY           SKY/WX    TMP DP  RH WIND       PRES   REMARKS
WHITE PLAINS   MOSUNNY   27   9  46 W18G32    30.21R WCI  14
NEWBURGH       MOSUNNY   27  14  59 NW21G28   30.21R WCI  13
MONTGOMERY     SUNNY     27  10  49 NW18G26   30.21R WCI  14
POUGHKEEPSIE   SUNNY     29  10  45 W14       30.23R WCI  18
ALBANY         PTSUNNY   25  15  66 W7        30.19R WCI  17
$$

NJZ001-105-106-008-010-013-015-019>022-104-211500-
NEW JERSEY

CITY           SKY/WX    TMP DP  RH WIND       PRES   REMARKS
NEWARK/LIBERTY MOSUNNY   29  10  45 W13G22    30.27R WCI  19
TETERBORO      SUNNY     30  10  43 NW15G23   30.26R WCI  19
CALDWELL       SUNNY     28   8  43 NW16      30.27R WCI  16
MORRISTOWN     MOSUNNY   28  12  50 NW14G22   30.27R WCI  17
SOMERVILLE     SUNNY     30  10  43 W9G20     30.27R WCI  22
SUSSEX         SUNNY     27  10  49 W10G23    30.22R WCI  17
ANDOVER          N/A     26   9  48 MISG      30.25R
TRENTON        SUNNY     29   9  43 W14G24    30.30R WCI  18
MILLVILLE      SUNNY     32   9  38 W20G25    30.35R WCI  20
ATLANTIC CITY  SUNNY     31  10  41 NW22      30.32R WCI  18
WRIGHTSTOWN    SUNNY     30   8  39 W15G23    30.29R WCI  19
TOMS RIVER     SUNNY     30   9  40 NW8G17    30.31R WCI  23
BELMAR         SUNNY     30   9  40 NW15G24   30.28R WCI  19
$$

PAZ047>061-062-071-211500-
EASTERN PENNSYLVANIA

CITY           SKY/WX    TMP DP  RH WIND       PRES   REMARKS
PHILADELPHIA   SUNNY     30   7  37 NW20G29   30.36R WCI  17
ALLENTOWN      SUNNY     28   9  44 W16G24    30.30R WCI  16
SCRANTON       CLOUDY    23   9  55 SW8       30.25R WCI  14
$$

CTZ002-004>006-009-010-012-RIZ004-006-007-MAZ004-011-015-211500-
SOUTHERN NEW ENGLAND
 IN CT

CITY           SKY/WX    TMP DP  RH WIND       PRES   REMARKS
BRADLEY INTL   MOSUNNY   31  10  41 NW14G26   30.16R WCI  21
HARTFORD       MOSUNNY   29   7  39 NW10G22   30.18R WCI  20
DANBURY        SUNNY     27   8  44 W15G25    30.20R WCI  15
WTRBRY/OXFORD  SUNNY     27   7  43 W9G17     30.16R WCI  17
BRIDGEPORT     SUNNY     30  10  43 W17G26    30.20R WCI  18
MERIDEN        SUNNY     29   8  41 W9        30.19R WCI  20
NEW HAVEN      MOSUNNY   33  12  41 NW9G17    30.20R WCI  25
CHESTER        NOT AVBL
GROTON         SUNNY     30   9  41 NW14      30.16R WCI  19
WILLIMANTIC    SUNNY     29   8  41 NW13G24   30.15R WCI  19

 IN RI

CITY           SKY/WX    TMP DP  RH WIND       PRES   REMARKS
PROVIDENCE     MOSUNNY   30   8  39 W15G24    30.13R WCI  19
BLOCK ISLAND   SUNNY     30   9  40 NW18G28   30.14R WCI  18
WESTERLY       SUNNY     30   7  37 NW9G17    30.16R WCI  22

 IN MA

CITY           SKY/WX    TMP DP  RH WIND       PRES   REMARKS
BOSTON         MOSUNNY   30  12  47 W21G30    30.08R WCI  17
WORCESTER      SUNNY     24   9  52 W14G21    30.06R WCI  12
WESTFIELD      MOSUNNY   29  10  45 NW12G18   30.14R WCI  19
PROVINCETOWN   PTSUNNY   32  16  51 NW23G36   30.06S WCI  19
NANTUCKET      SUNNY     34  13  41 NW23G30   30.09R WCI  22
$$

ANZ330-335-338-340-345-350-353-355-211500-
COASTAL MARINE OBSERVATIONS


STATION/POSITION TIME  SKY/WX   TEMP    WIND        PRES    VSBY  WAVE
                                AIR SEA DIR/SP/G                  HT/PER
                 (UTC)          (F)     (DEG/KT/KT) (MB)    (MI)  (FT/S)
NY HARB ENTRANCE 1400            32 56  290/ 25/ 31 1024.4          4/ 5
4S FIRE IS       1400               53                N/A           5/ 5
20S FIRE ISLAND  1400            33 54  310/ 27/ 33 1023.0          6/ 6
23SW MTP         1400                                 N/A           6/ 6
HUDSON CANYON    1400            36 59  300/ 27/ 33 1022.4         10/ 8
EXECUTION ROCKS  1400            32 48  280/ 17/ 27   N/A
WESTERN LI SOUND 1400            30     290/ 17/ 25   N/A           2/ 3
CENTRAL LI SOUND 1300            31 51  280/ 23/ 31   N/A           4/ 6
EASTERN LI SOUND 1300            33 53  300/ 19/ 25   N/A
ROBBINS REEF     1400            29     290/ 17/ 22 1023.8
$$


>>>>>>>>>>>>>>>>>>>>>>>>>>>> KEY <<<<<<<<<<<<<<<<<<<<<<<<<<<
>                                                          <
>     SKY/WX - SKY CONDITION/PRESENT WEATHER               <
>     TMP    - TEMPERATURE IN FAHRENHEIT                   <
>     DP     - DEWPOINT IN FAHRENHEIT                      <
>     RH     - RELATIVE HUMIDITY IN PERCENT                <
>     WIND   - DIRECTION AND SPEED IN MPH                  <
>     PRES   - MEAN SEA LEVEL PRESSURE IN INCHES OF HG     <
>     WCI    - WIND CHILL INDEX                            <
>     VSB    - VISIBILITY IN MILES                         <
>     HX     - HEAT INDEX                                  <
>     TC     - TEMPERATURE IN CELSIUS                      <
>     VRB    - VARIABLE WIND DIRECTION                     <
>                                                          <
>>>>>>>>>>>>>>>>>>>>>>>>>>>> KEY <<<<<<<<<<<<<<<<<<<<<<<<<<<




USA.gov is the U.S. government's official web portal to all federal, state and local government web resources and services.